ONEWEB-0065, 45164

Orbit data source: Space-Track

ONEWEB-0065, 45164 is a payload satellite owned by One Web (UK) in LEO that was launched on Thu, 06 Feb 2020 UTC via a SOYUZ-2-1B launch vehicle from the Tyuratam Missile And Space Complex (TTMTR). Payload-class satellites include a variety of spacecraft equipped with specific instruments for various scientific and technological missions. These include communications satellites like Starlink; space stations such as the ISS; scientific satellites like the Hubble; Earth observation satellites from companies like Planet Labs, Umbra, and HawkEye 360; GPS; miniature CubeSats for education and research; and military/defense satellites.

Loading next visibility...
Identifier
45164, 2020-008AK
Orbit
LEO
Country
Flag of UKUK
Related business
Manufacturer
One Web
Mission
Operational Commercial Communications
Bus & Motor
ARROW, Unknown motor
Mass
148 kg wet, ~140 kg dry
Launch date (UTC)
2020-02-06 (6 years ago)
Launch vehicle
SOYUZ-2-1B
Launch site
Tyuratam Missile And Space Complex (TTMTR)
Object type
Payload
Rocket body
Debris
Shape & HBR
Trap Box + 2 Pan, 2.5 m
Radar Cross Section
2.957 m², Large (>1 m²)

Expand to show TLE details & history
Last TLE update: 13 hours ago

TLE from 13 hours ago
0 ONEWEB-0065
1 45164U 20008AK  25260.99854316  .00000041  00000-0  81855-4 0  9996
2 45164  87.8730  90.5676 0002058  85.0754 275.0608 13.10368795272239
Epoch: 2025-09-17T23:57Z
TLE epoch observation values (Epoch: 2025-09-17T23:57:54.129Z)
Latitude
-0.00002°
Longitude
93.92561°
Altitude
1,224.483 km
Speed
7.242 km/s
True Right ascension
06h 02m 16s
True Declination
0° 00' 00"
Sunlit
Object was in daylight at epoch
Visualization orbit readout
Latitude
Unknown
Longitude
Unknown
Altitude
Unknown
Speed
Unknown
Apparent Right ascension
Unknown
Apparent Declination
Unknown
Sunlit
N/A
Visualization observer readout
Local Sidereal Time
06:17:43
Azimuth
Unknown
Elevation
Unknown
Doppler factor
Unknown
Orbital elements
Apogee altitude
1,220.416 km
Perigee altitude
1,217.289 km
Semi-major axis
7,596.99 km
Eccentricity
0.00021
Inclination
87.873°
RAAN
90.5676°
Arg. of periapsis
85.0754°
True anomaly
275.03731°
Mean anomaly
275.0608°
Eccentric anomaly
275.04905°
Mean motion
3.27779 °/min
Orbital period
109.83 mins
BSTAR
0.000081855
Loading maneuver chart data...
Computing Atmospheric mass density...
Loading historical data...
Loading historical data...
Loading historical data...
Loading historical data...
Loading historical data...
Loading historical data...
Loading historical data...

Documentation

Showing up to 5 results
|